CW6157 Weather Reports


time (UTC)temp
C
wind
direction
speed
KPH
gust
KPH
rain 1hr
cm
rain 24hr
cm
rain mn
cm
humidity
%
barometer
mb
20260508070244 8 40 0.0 20.9 0.03 0.05 0.05 87 1005.3
20260508064739 8 93 6.4 11.3 0.00 0.03 0.03 86 1005.9
20260508063304 8 76 9.7 11.3 0.00 0.03 0.03 86 1005.8
20260508061736 8 69 4.8 11.3 0.00 0.03 0.03 87 1005.5
20260508060255 8 52 6.4 11.3 0.00 0.03 0.03 87 1005.5
20260508054800 8 69 4.8 12.9 0.00 0.03 0.03 87 1005.5
20260508053248 8 55 9.7 12.9 0.00 0.03 0.03 88 1005.3
20260508051739 8 93 8.0 17.7 0.00 0.03 0.03 88 1005.4
20260508050231 8 56 6.4 17.7 0.00 0.03 0.03 88 1005.3
20260508044739 8 65 11.3 17.7 0.00 0.03 0.03 87 1005.2
20260508043233 8 54 9.7 19.3 0.00 0.03 0.03 87 1005.0
20260508041738 8 82 12.9 17.7 0.00 0.03 0.03 87 1005.1
20260508040245 9 55 4.8 11.3 0.00 0.03 0.03 88 1004.9
20260508034737 9 51 11.3 12.9 0.00 0.03 0.03 87 1005.1
20260508033250 9 75 4.8 9.7 0.00 0.03 0.03 87 1005.2
20260508031736 9 59 9.7 11.3 0.00 0.03 0.03 87 1005.3
20260508030235 9 41 4.8 12.9 0.00 0.03 0.03 87 1005.1
20260508024740 9 64 8.0 12.9 0.00 0.03 0.03 87 1005.1
20260508023233 9 52 9.7 14.5 0.00 0.03 0.03 87 1006.0
20260508021737 10 54 9.7 12.9 0.00 0.03 0.03 87 1006.2
20260508020233 10 38 6.4 12.9 0.00 0.03 0.03 86 1006.4
20260508014740 10 31 9.7 11.3 0.00 0.03 0.03 84 1006.5
20260508013302 10 75 4.8 12.9 0.00 0.03 0.03 83 1006.5
20260508011745 10 58 6.4 11.3 0.03 0.03 0.03 83 1006.7
20260508010242 10 44 6.4 12.9 0.03 0.03 0.03 82 1006.8
20260508004746 11 61 6.4 12.9 0.03 0.03 0.03 81 1006.9
20260508003247 11 23 11.3 16.1 0.03 0.03 0.03 77 1007.0
20260508001740 11 292 0.0 6.4 0.00 0.00 0.00 75 1007.0
20260508000231 11 278 3.2 9.7 0.00 0.00 0.00 74 1007.2
20260507234756 11 215 4.8 11.3 0.00 0.00 0.00 73 1007.2
20260507233249 11 223 4.8 12.9 0.00 0.00 0.00 72 1007.3
20260507231732 11 141 4.8 12.9 0.00 0.00 0.00 72 1007.2
20260507230247 11 169 6.4 17.7 0.00 0.00 0.00 71 1006.9
20260507224734 11 155 8.0 19.3 0.00 0.00 0.00 70 1007.0
20260507223241 11 162 3.2 12.9 0.00 0.00 0.00 69 1007.0
20260507221739 11 144 3.2 8.0 0.00 0.00 0.00 70 1007.0
20260507220256 11 144 3.2 9.7 0.00 0.00 0.00 71 1007.4
20260507214738 11 141 3.2 9.7 0.00 0.00 0.00 71 1007.4
20260507213242 11 134 3.2 12.9 0.00 0.00 0.00 70 1007.2
20260507211746 11 155 6.4 17.7 0.00 0.00 0.00 68 1007.1
20260507210259 11 141 6.4 20.9 0.00 0.00 0.00 66 1006.9
20260507204743 12 138 6.4 19.3 0.00 0.00 0.00 62 1006.6
20260507203247 13 99 6.4 27.4 0.00 0.00 0.00 57 1006.1
20260507201738 14 106 4.8 11.3 0.00 0.00 0.00 52 1006.5
20260507200256 15 109 4.8 9.7 0.00 0.00 0.00 50 1005.6
20260507194744 15 161 1.6 4.8 0.00 0.00 0.00 45 1005.5
20260507193236 16 168 1.6 3.2 0.00 0.00 0.00 44 1006.1
20260507191744 16 169 1.6 6.4 0.00 0.00 0.00 42 1006.1
20260507190234 16 168 0.0 8.0 0.00 0.00 0.00 41 1005.2
20260507184743 16 281 1.6 4.8 0.00 0.00 0.00 39 1005.0
20260507183233 16 281 0.0 4.8 0.00 0.00 0.00 42 1004.9
20260507181743 16 281 0.0 3.2 0.00 0.00 0.00 44 1004.8
20260507180304 15 281 0.0 11.3 0.00 0.00 0.00 45 1005.0
20260507174737 15 287 6.4 17.7 0.00 0.00 0.00 44 1005.0
20260507173241 16 229 8.0 24.1 0.00 0.00 0.00 42 1005.1
20260507171732 16 257 11.3 32.2 0.00 0.00 0.00 42 1005.2
20260507170248 16 217 20.9 29.0 0.00 0.00 0.00 44 1005.4
20260507164738 16 219 19.3 30.6 0.00 0.00 0.00 46 1005.1
20260507163241 17 216 4.8 16.1 0.00 0.00 0.00 37 1005.0
20260507161752 17 213 12.9 20.9 0.00 0.00 0.00 32 1004.9
20260507160237 17 222 8.0 12.9 0.00 0.00 0.00 35 1004.8
20260507154739 16 241 8.0 19.3 0.00 0.00 0.00 41 1005.0
20260507153233 15 212 17.7 29.0 0.00 0.00 0.00 43 1005.1
20260507151741 16 209 20.9 33.8 0.00 0.00 0.00 45 1005.1
20260507150238 16 215 25.7 48.3 0.00 0.00 0.00 46 1004.9
20260507144745 18 213 12.9 25.7 0.00 0.00 0.00 34 1005.4
20260507143236 18 200 4.8 16.1 0.00 0.00 0.00 33 1004.6
20260507141743 17 155 6.4 19.3 0.00 0.00 0.00 33 1004.8
20260507140235 18 213 14.5 27.4 0.00 0.00 0.00 32 1005.0
20260507134745 18 220 8.0 16.1 0.00 0.00 0.00 31 1005.9
20260507133236 18 148 3.2 16.1 0.00 0.00 0.00 35 1006.1
20260507131744 18 128 6.4 17.7 0.00 0.00 0.00 33 1006.2
20260507130256 18 64 3.2 17.7 0.00 0.00 0.00 31 1005.6
20260507124748 17 69 4.8 11.3 0.00 0.00 0.00 37 1005.7
20260507123259 17 210 0.0 17.7 0.00 0.00 0.00 39 1006.0
20260507121742 17 127 3.2 14.5 0.00 0.00 0.00 37 1006.2
20260507120304 17 222 3.2 12.9 0.00 0.00 0.00 39 1006.3
20260507114733 16 48 0.0 9.7 0.00 0.00 0.00 44 1006.6
20260507113256 15 35 9.7 12.9 0.00 0.00 0.00 47 1006.7
20260507111739 15 52 9.7 12.9 0.00 0.00 0.00 48 1006.9
20260507110235 14 76 6.4 12.9 0.00 0.00 0.00 52 1007.1
20260507104801 14 66 3.2 19.3 0.00 0.00 0.00 55 1007.2
20260507103229 14 119 8.0 16.1 0.00 0.00 0.00 57 1007.2
20260507101742 13 106 6.4 14.5 0.00 0.00 0.00 60 1007.6
20260507100235 12 83 9.7 12.9 0.00 0.00 0.00 63 1007.4
20260507094802 12 44 6.4 12.9 0.00 0.00 0.00 64 1007.6
20260507093231 12 76 3.2 16.1 0.00 0.00 0.00 64 1007.7
20260507091743 12 68 8.0 11.3 0.00 0.00 0.00 66 1007.6
20260507090236 12 76 8.0 11.3 0.00 0.00 0.00 65 1007.4
20260507084742 12 47 9.7 12.9 0.00 0.00 0.00 67 1007.3
20260507083246 11 72 9.7 12.9 0.00 0.00 0.00 69 1007.5
20260507081755 10 48 11.3 16.1 0.00 0.00 0.00 71 1007.6
20260507080251 10 75 9.7 17.7 0.00 0.00 0.00 73 1007.4
20260507074741 10 41 16.1 19.3 0.00 0.00 0.00 73 1007.3
20260507073318 10 42 9.7 17.7 0.00 0.00 0.00 76 1007.3
20260507071758 9 44 9.7 16.1 0.00 0.00 0.00 78 1007.6